Weather History for Clarksburg, WV

Change the Weather History Date:

Friday, January 24, 2014

  Actual Average Record
Temperature  
Mean Temperature 8 °F -  
Max Temperature 21 °F 42 °F 69 °F (1967)
Min Temperature 0 °F 19 °F -15 °F (1936)
Degree Days  
Heating Degree Days 56    
Moisture  
Dew Point -5 °F    
Average Humidity 59    
Maximum Humidity 76    
Minimum Humidity 29    
Precipitation  
Precipitation 0.00 in - - ()
Sea Level Pressure  
Sea Level Pressure 30.39 in    
Wind  
Wind Speed 10 mph (SW)    
Max Wind Speed 20 mph    
Max Gust Speed 25 mph    
Visibility 8 miles    
Events Snow    
Averages and records for this station are not official NWS values.
T = Trace of Precipitation, MM = Missing Value Source: NWS Daily Summary

Daily Weather History Graph

Daily Weather History Graph

Search for Another Location

Airport:

Trip Planner

Search our weather history database for the weather conditions in past years. The results will help you decide how hot, cold, wet, or windy it might be!

Date:

Astronomy

Jan. 24, 2014 Rise Set
Actual Time 7:34 AM EST 5:32 PM EST
Civil Twilight 7:05 AM EST 6:01 PM EST
Nautical Twilight 6:32 AM EST 6:33 PM EST
Astronomical Twilight 6:01 AM EST 7:05 PM EST
Moon 1:00 AM EST (1/24) 11:49 AM EST (1/24)
Length of Visible Light 10h 55m
Length of Day
9h 57m
Last Quarter, 45% of the Moon is Illuminated
Jan 24
Last Quarter
Jan 30
New
Feb 6
First Quarter
Feb 14
Full
Feb 22
Last Quarter

Hourly Weather History & Observations

Time (EST) Temp. Windchill Dew Point Humidity Pressure Visibility Wind Dir Wind Speed Gust Speed Precip Events Conditions
12:23 AM 3.0 °F -8.0 °F -4.0 °F 73% 30.47 in 3.0 mi West 5.8 mph - 0.00 in Snow Light Snow
12:53 AM 3.0 °F -8.0 °F -4.0 °F 73% 30.54 in 6.0 mi West 5.8 mph - 0.00 in   Haze
1:53 AM 1.9 °F -11.8 °F -5.1 °F 72% 30.54 in 5.0 mi SW 8.1 mph - 0.00 in   Haze
2:53 AM 1.9 °F -10.6 °F -4.0 °F 76% 30.56 in 5.0 mi SW 6.9 mph - N/A   Haze
3:53 AM -0.0 °F -11.6 °F -6.0 °F 76% 30.56 in 7.0 mi SW 5.8 mph - N/A   Overcast
4:53 AM 1.0 °F -14.0 °F -5.1 °F 75% 30.58 in 10.0 mi SW 9.2 mph - N/A   Overcast
5:53 AM 1.0 °F -14.9 °F -5.1 °F 75% 30.58 in 7.0 mi SW 10.4 mph - N/A   Overcast
6:53 AM 1.0 °F -14.0 °F -6.0 °F 72% 30.59 in 5.0 mi SSW 9.2 mph - 0.00 in Snow Light Snow
7:53 AM 1.0 °F -16.6 °F -6.0 °F 72% 30.58 in 4.0 mi SSW 12.7 mph - 0.00 in   Haze
8:30 AM 1.0 °F -17.3 °F -5.1 °F 75% 30.50 in 2.5 mi SSW 13.8 mph - N/A   Haze
8:53 AM 1.0 °F -16.6 °F -6.0 °F 72% 30.58 in 2.0 mi SSW 12.7 mph - 0.00 in Snow Light Snow
9:05 AM 1.0 °F -15.8 °F -6.0 °F 72% 30.50 in 4.0 mi SSW 11.5 mph - 0.00 in   Haze
9:53 AM 1.9 °F -15.5 °F -6.0 °F 69% 30.56 in 6.0 mi SW 12.7 mph - 0.00 in   Haze
10:53 AM 3.9 °F -14.3 °F -5.1 °F 66% 30.53 in 10.0 mi SW 15.0 mph - N/A   Mostly Cloudy
11:44 AM 6.1 °F -11.6 °F -4.0 °F 63% 30.43 in 10.0 mi SSW 15.0 mph - N/A   Scattered Clouds
11:53 AM 7.0 °F -8.3 °F -4.0 °F 61% 30.49 in 10.0 mi SSW 11.5 mph - N/A   Partly Cloudy
12:53 PM 9.0 °F -7.3 °F -2.9 °F 59% 30.45 in 10.0 mi SSW 13.8 mph - N/A   Clear
1:53 PM 10.9 °F -4.7 °F -2.9 °F 54% 30.39 in 10.0 mi SSW 13.8 mph - N/A   Clear
2:53 PM 12.9 °F -3.9 °F -2.0 °F 51% 30.35 in 10.0 mi SW 17.3 mph - N/A   Clear
3:53 PM 15.1 °F -2.0 °F -4.0 °F 43% 30.29 in 10.0 mi SW 19.6 mph 25.3 mph N/A   Clear
4:53 PM 15.1 °F 1.8 °F -4.0 °F 43% 30.25 in 10.0 mi SW 11.5 mph - N/A   Clear
5:53 PM 14.0 °F 2.0 °F -6.0 °F 41% 30.22 in 10.0 mi SSW 9.2 mph - N/A   Clear
6:53 PM 14.0 °F 2.9 °F -6.0 °F 41% 30.18 in 10.0 mi South 8.1 mph - N/A   Clear
7:53 PM 14.0 °F 2.9 °F -6.0 °F 41% 30.12 in 10.0 mi South 8.1 mph - N/A   Clear
8:53 PM 14.0 °F 3.9 °F -6.0 °F 41% 30.07 in 10.0 mi South 6.9 mph - N/A   Clear
9:53 PM 14.0 °F 3.9 °F -6.0 °F 41% 30.03 in 10.0 mi South 6.9 mph - N/A   Clear
10:53 PM 17.1 °F 5.0 °F -7.1 °F 34% 29.96 in 10.0 mi South 10.4 mph - N/A   Clear
11:53 PM 21.0 °F 8.1 °F -7.1 °F 29% 29.92 in 10.0 mi SW 13.8 mph 23.0 mph N/A   Clear